Regional Weather Roundup
Issued by NWS Charleston, SC

Current Version | Previous Version | Graphics & Text | Print | Product List | Glossary On
Versions: 1 2 3 4 5 6 7 8 9 10 11 12 13 14 15 16 17 18 19 20 21 22 23 24 25 26 27 28 29 30 31 32 33 34 35 36 37 38 39 40 41 42 43 44 45 46 47 48 49 50
000
ASUS42 KCHS 280113
RWRCHS

REGIONAL WEATHER ROUNDUP
NATIONAL WEATHER SERVICE CHARLESTON SC
900 PM EDT TUE SEP 27 2016

NOTE: "FAIR" INDICATES FEW OR NO CLOUDS BELOW 12,000 FEET WITH NO
SIGNIFICANT WEATHER AND/OR OBSTRUCTIONS TO VISIBILITY.

NOT ALL STATIONS ARE QUALITY CONTROLLED. USE DATA WITH CAUTION...
ESPECIALLY DEWPOINT OBSERVATIONS.

SCZ027-030-031-034>040-042>050-280200-
...SOUTHEAST SOUTH CAROLINA...

CITY           SKY/WX    TMP DP  RH WIND       PRES   REMARKS
N CHARLESTON   PTCLDY    75  69  81 SW3       29.90R
WATERFRONT PRK   N/A     78  72  81 VRB2      29.88R
MOUNT PLEASANT FAIR      73  72  94 CALM      29.90R
JOHNS ISLAND   FAIR      73  72  94 CALM      29.91R
PINOPOLIS        N/A     77  72  83 VRB2      29.83R
MONCKS CORNER  FAIR      73  68  83 CALM      29.91R
SUMMERVILLE    FAIR      73  73 100 CALM      29.91R
BEAUFORT MCAS  MOCLDY    77  73  87 CALM      29.91R
BEAUFORT ARPT  FAIR      75  72  88 CALM      29.90R
HILTON HEAD IS MOCLDY    75  73  94 CALM      29.91R
WALTERBORO     MOCLDY    77  77 100 CALM      29.92R
ALLENDALE      FAIR      75  72  88 CALM      29.89R

...SOUTHERN MIDLANDS AND PEE DEE...

CITY           SKY/WX    TMP DP  RH WIND       PRES   REMARKS
GEORGETOWN     FAIR      72  70  94 CALM      29.91R
KINGSTREE      FAIR      73  70  88 SE3       29.91R
ORANGEBURG     PTCLDY    75  71  87 CALM      29.90R
BARNWELL       NOT AVBL
AIKEN          FAIR      73  64  73 S5        29.94R
MANNING        FAIR      72  70  94 CALM      29.91R
COLUMBIA       PTCLDY    81  69  67 CALM      29.89R
SUMTER         CLOUDY    75  69  82 S3        29.87R
FLORENCE       CLOUDY    77  72  84 SE3       29.91R
MYRTLE BEACH   PTCLDY    75  63  64 CALM      29.92R
N MYRTLE BEACH CLEAR     73  70  90 CALM      29.90R

$$

GAZ063-065-086>088-099>101-113>116-118-119-134>141-150-280200-
...SOUTHEAST GEORGIA...

CITY           SKY/WX    TMP DP  RH WIND       PRES   REMARKS
SAVANNAH ARPT  MOCLDY    77  71  82 SE5       29.90R
HUNTER AAF     MOCLDY    76  76 100 SE2       29.88R
FORT STEWART   MOCLDY    77  72  83 CALM      29.88R
STATESBORO     PTCLDY    74  73  96 CALM      29.90S
SYLVANIA       NOT AVBL
CLAXTON        FAIR      74  74 100 CALM      29.90S

...CSRA...CENTRAL AND FAR SOUTHEAST GEORGIA...

CITY           SKY/WX    TMP DP  RH WIND       PRES   REMARKS
THOMSON        CLEAR     78  73  83 CALM      29.93R
AUGUSTA-BUSH   CLOUDY    73  68  84 S5        29.88R
AUGUSTA-DANIEL PTCLDY    81  65  58 SE5       29.90R
SWAINSBORO     FAIR      77  70  78 CALM      29.91R
VIDALIA        CLEAR     77  73  88 CALM      29.91S
EASTMAN        FAIR      76  61  58 CALM      29.93R
HAZLEHURST     FAIR      76  72  85 CALM      29.91R
ALMA           CLEAR     73  71  93 CALM      29.91R
WAYCROSS       PTCLDY    80  75  86 CALM      29.91R
JESUP          FAIR      77  75  94 CALM      29.91R
BAXLEY         FAIR      77  75  94 CALM      29.91R
BRUNSWICK      PTCLDY    73  73 100 CALM      29.92R
SAINT SIMONS   PTCLDY    78  71  79 CALM      29.90R

$$

SCZ027-028-034-036>038-045-046-048>050-GAZ119-141-280200-
...LAKE AND SUPPLEMENTAL COASTAL OBSERVATIONS...

STATION/POSITION TIME  TEMP    WIND        PRES    WAVE   SWELL
                       AIR SEA DIR/SP/G            HT/PER HT/PER/DIR
                 (UTC) (F)     (DEG/KT/KT) (MB)    (FT/S) (FT/S/D)
WINYAH BAY       NOT AVBL
LAKE MURRAY      0020   78     350/  3/ 13 1011.9R
ACE BASIN NERRS  2345   76        CALM     1012.0
FORT PULASKI     0042   78 81  160/  2/  3 1012.8R
SAPELO ISLAND    0000   78     140/  2     1012.0

$$

ANZ835-935-AMZ111-154-330-350-352-354-370-450-454-472-280200-
...C-MAN AND BUOY OBSERVATIONS...

STATION/POSITION TIME  TEMP    WIND        PRES    WAVE   SWELL
                       AIR SEA DIR/SP/G            HT/PER HT/PER/DIR
                 (UTC) (F)     (DEG/KT/KT) (MB)    (FT/S) (FT/S/D)
BUOY 41004       0050   80 82   70/  4/  6 1011.9R   2/ 8   2/100/ 8
BUOY 41008       0050   80 82  160/  2/  4 1012.3R   2/10   2/ 90/10
FOLLY BEACH CMAN 0100   79     160/  4/  5 1012.9R
CAPERS NEARSHORE 0008   79 82  160/  6/  8 1011.8R
FRIPP NEARSHORE  0008   79 81  140/  8/  8 1012.0S


STATION/POSITION TIME  TEMP    WIND        PRES    WAVE   SWELL
                       AIR SEA DIR/SP/G            HT/PER HT/PER/DIR
                 (UTC) (F)     (DEG/KT/KT) (MB)    (FT/S) (FT/S/D)
5E ST. MARYS GA  NOT AVBL
FRYING PAN BUOY  0050   80 82   20/  6/ 10 1012.1R   3/ 7   3/120/ 7
BUOY 41025       0050   78 84   60/  8/ 10 1011.9R   5/ 7   5/120/ 7
CAPE LOOKOUT NC  0100   77      50/  8/  9 1012.4R
BUOY 41002       0050   81 83  240/ 12/ 16 1012.0R   5/ 7   3/ 90/ 7
BUOY 41010       NOT AVBL
ST AUGUSTINE FL  0100   81 85  100/  5/  6 1014.0R


$$




USA.gov is the U.S. government's official web portal to all federal, state and local government web resources and services.